Weather History for Moses Lake, WA

Change the Weather History Date:

Wednesday, June 26, 2013

  Actual Average Record
Temperature  
Mean Temperature 66 °F 68 °F  
Max Temperature 76 °F 83 °F 102 °F (2002)
Min Temperature 56 °F 54 °F 43 °F (2007)
Degree Days  
Heating Degree Days 0 1  
Month to date heating degree days 49 49  
Since 1 June heating degree days 49 49  
Since 1 July heating degree days 5330 5876  
Cooling Degree Days 1 4  
Month to date cooling degree days 64 66  
Year to date cooling degree days 114 91  
Since 1 June cooling degree days 64 66  
Growing Degree Days 16 (Base 50)    
Moisture  
Dew Point 53 °F    
Average Humidity 66    
Maximum Humidity 90    
Minimum Humidity 41    
Precipitation  
Precipitation 0.00 in 0.01 in 0.80 in (2012)
Month to date precipitation 1.57 0.70  
Year to date precipitation 3.65 4.72  
Sea Level Pressure  
Sea Level Pressure 29.97 in    
Wind  
Wind Speed 7 mph (SSE)    
Max Wind Speed 18 mph    
Max Gust Speed 21 mph    
Visibility 10 miles    
Events      
T = Trace of Precipitation, MM = Missing Value Source: NWS Daily Summary

Daily Weather History Graph

Daily Weather History Graph

Search for Another Location

Airport:

Trip Planner

Search our weather history database for the weather conditions in past years. The results will help you decide how hot, cold, wet, or windy it might be!

Date:

Astronomy

Jun. 26, 2013 Rise Set
Actual Time 5:02 AM PDT 8:57 PM PDT
Civil Twilight 4:22 AM PDT 9:37 PM PDT
Nautical Twilight 3:27 AM PDT 10:32 PM PDT
Astronomical Twilight 2:03 AM PDT 11:55 PM PDT
Moon 11:03 PM PDT (6/26) 9:17 AM PDT (6/26)
Length of Visible Light 17h 14m
Length of Day
15h 54m
Waning Gibbous, 84% of the Moon is Illuminated
Jun 26
Waning Gibbous
Jun 29
Last Quarter
Jul 8
New
Jul 15
First Quarter
Jul 22
Full

Hourly Weather History & Observations

Time (PDT) Temp. Dew Point Humidity Pressure Visibility Wind Dir Wind Speed Gust Speed Precip Events Conditions
12:52 AM 64.0 °F 51.1 °F 63% 29.85 in 10.0 mi SSW 8.1 mph - N/A   Overcast
1:52 AM 61.0 °F 52.0 °F 72% 29.86 in 10.0 mi South 6.9 mph - N/A   Scattered Clouds
2:52 AM 61.0 °F 51.1 °F 70% 29.88 in 10.0 mi SSW 8.1 mph - N/A   Clear
3:52 AM 59.0 °F 51.1 °F 75% 29.89 in 10.0 mi South 5.8 mph - N/A   Clear
4:52 AM 57.9 °F 51.1 °F 78% 29.91 in 10.0 mi SE 4.6 mph - N/A   Clear
5:52 AM 57.9 °F 51.1 °F 78% 29.92 in 10.0 mi SSE 6.9 mph - N/A   Clear
6:52 AM 57.9 °F 53.1 °F 84% 29.93 in 10.0 mi SSE 6.9 mph - N/A   Clear
7:52 AM 61.0 °F 53.1 °F 75% 29.94 in 10.0 mi SSE 5.8 mph - N/A   Clear
8:52 AM 63.0 °F 53.1 °F 70% 29.96 in 10.0 mi ESE 5.8 mph - N/A   Mostly Cloudy
9:52 AM 64.9 °F 53.1 °F 65% 29.98 in 10.0 mi Variable 3.5 mph - N/A   Overcast
10:52 AM 66.9 °F 51.1 °F 57% 29.98 in 10.0 mi Calm Calm - N/A   Partly Cloudy
11:52 AM 70.0 °F 50.0 °F 49% 29.98 in 10.0 mi SSE 6.9 mph - N/A   Partly Cloudy
12:52 PM 71.1 °F 51.1 °F 49% 29.99 in 10.0 mi Variable 6.9 mph - N/A   Clear
1:52 PM 71.1 °F 52.0 °F 51% 29.99 in 10.0 mi Variable 3.5 mph - N/A   Clear
2:52 PM 73.0 °F 51.1 °F 46% 29.99 in 10.0 mi SW 6.9 mph - N/A   Clear
3:52 PM 73.0 °F 50.0 °F 44% 29.99 in 10.0 mi SSE 8.1 mph - N/A   Scattered Clouds
4:52 PM 73.9 °F 48.9 °F 41% 29.99 in 10.0 mi South 8.1 mph - N/A   Mostly Cloudy
5:52 PM 73.9 °F 51.1 °F 45% 29.99 in 10.0 mi South 9.2 mph - N/A   Scattered Clouds
6:52 PM 75.0 °F 52.0 °F 44% 29.99 in 10.0 mi South 6.9 mph - N/A   Clear
7:52 PM 72.0 °F 55.9 °F 57% 30.01 in 10.0 mi South 13.8 mph - N/A   Clear
8:52 PM 69.1 °F 57.0 °F 65% 30.03 in 10.0 mi South 11.5 mph - N/A   Clear
9:52 PM 64.9 °F 57.0 °F 75% 30.05 in 10.0 mi SE 5.8 mph - N/A   Clear
10:52 PM 63.0 °F 57.0 °F 81% 30.06 in 10.0 mi SE 6.9 mph - N/A   Clear
11:52 PM 60.1 °F 57.0 °F 90% 30.06 in 10.0 mi SSE 4.6 mph - N/A   Clear